User: anonymous   Login
Location: Berg
(47.2344°N, 9.5296°E)
Time: 00:36:33
(UTC+00:00)
Language:

H-2A R/B - Orbit

View from above orbital plane
View from above orbital plane
View from above satellite
View from above satellite

Ground track
Ground track

The orbit data is extracted from the following two-line orbital elements,

1 27601U 02056E   21104.55307590 -.00000049  00000-0 -33452-5 0  9998
2 27601  98.1964 130.3160 0073382 100.3517  14.8600 14.31990578957781
Epoch (UTC): 14 April 2021 13:16:25
Eccentricity: 0.0073382
inclination: 98.1964°
perigee height: 732 km
apogee height: 837 km
right ascension of ascending node: 130.3160°
argument of perigee: 100.3517°
revolutions per day: 14.31990578
mean anomaly at epoch: 14.8600°
orbit number at epoch: 95778

The dashed part of the orbit path shows where the satellite is in the earth's shadow,  

DLR